Simultaneous Nadir Overpasses (SNOs) Predictions

Prediction of SNOs between GOES-16 and NPP Satellite Orbit:

Table of predicted SNOs for the next 14.0 days since TLE Epoch: 3/11/2023
Index Date Time (GOES-16) GOES-16 Lat,Lon NPP Lat,Lon Distance(km) Time Diff (sec)
1 03/12/2023 06:40:30 -0.07, -75.21 0.56, -77.91 308.68 80
2 03/13/2023 06:19:08 -0.07, -75.21 -0.49, -73.39 207.76 80
3 03/14/2023 18:41:06 0.06, -75.22 -0.72, -78.69 396.11 80
4 03/15/2023 18:25:03 0.06, -75.22 0.28, -74.16 120.56 80
5 03/17/2023 06:46:53 -0.05, -75.23 0.88, -79.44 479.20 80
6 03/18/2023 06:25:29 -0.05, -75.24 -0.12, -74.91 37.73 80
7 03/20/2023 18:31:24 0.04, -75.27 -0.05, -75.68 47.47 80
8 03/21/2023 18:10:01 0.04, -75.28 0.96, -71.15 470.37 80
9 03/23/2023 06:34:30 -0.04, -75.31 0.23, -76.42 127.37 80
10 03/24/2023 06:13:07 -0.04, -75.33 -0.79, -71.89 390.75 80
